Location: Unspecified
(0.0000°N, 0.0000°E)
Time: 11:29:05
(UTC+00:00)

S-56A Canister/Altair - Pass Details

Date: 27 November 2019
Orbit: 633 x 2499 km, 38.9° (Epoch: 07 December)

Event Time Altitude Azimuth Distance (km) Brightness Sun altitude
Rises 00:06:09 0° 286° (WNW) 2,949 - -68.5°
Reaches altitude 10° 00:08:51 10° 271° (W) 2,002 - -68.3°
Maximum altitude 00:12:20 22° 218° (SW) 1,395 - -68.1°
Drops below altitude 10° 00:16:05 10° 166° (SSE) 2,172 - -67.8°
Sets 00:19:11 0° 151° (SSE) 3,277 - -67.6°
